Voltar ao catálogo

ATLAS 5 CENTAUR DEB

LostHEO
NORAD 57592·DEBRIS·🇺🇸 United States

Lançado Oct 17, 2018 de Cape Canaveral Space Force Station

Loading…

Próximas Passagens (próximas 24 horas)

TLE

ObsoletoSource: Space-Track

Época: Aug 23, 2023, 13:50 UTC

1 57592U 18079HT  23235.57642503 -.00000088  00000-0  00000+0 0  9996
2 57592  11.6661 104.5433 4641692 186.1018 165.2932  1.92144632  7601

Acompanhe ATLAS 5 CENTAUR DEB em tempo real com AllMySat

Download on the App Store